Location: Unspecified
(0.0000°N, 0.0000°E)
Time: 04:37:02
(UTC+00:00)

Transit 4A - Pass Details

Date: 13 December 2018
Orbit: 862 x 983 km, 66.8° (Epoch: 17 June)

Event Time Altitude Azimuth Distance (km) Brightness Sun altitude
Rises 14:32:57 0° 331° (NNW) 3,601 10.9 45.0°
Reaches altitude 10° 14:35:30 10° 327° (NNW) 2,675 10.4 44.5°
Maximum altitude 14:41:36 55° 251° (WSW) 1,152 10.5 43.2°
Drops below altitude 10° 14:47:51 10° 174° (S) 2,732 10.7 41.9°
Sets 14:50:30 0° 169° (S) 3,685 11.2 41.3°
